Location: Newark
(46.1292°N, 1.0086°W)
Time: 20:43:27
(UTC+00:00)

Vanguard 3 - Pass Details

Date: 15 November 2019
Orbit: 508 x 3263 km, 33.3° (Epoch: 07 December)

Event Time Altitude Azimuth Distance (km) Brightness Sun altitude
Rises 19:36:22 0° 271° (W) 6,657 12.9 -31.8°
Reaches altitude 10° 19:41:56 10° 264° (W) 5,243 12.1 -32.8°
Maximum altitude 19:53:29 31° 210° (SSW) 2,809 9.9 -34.7°
Enters shadow 19:56:50 26° 179° (S) 2,736 9.6 -35.3°
Drops below altitude 10° 20:00:52 10° 152° (SSE) 3,294 - -36.0°
Sets 20:03:31 0° 141° (SE) 3,940 - -36.5°
